This is the latest recevied weather packets stored in our database for station/object KC5EZZ-2. If no packets are shown the sender has not sent any weather packets the latest 10 day(s).
| Time | Temp. | Humidity | Pressure | Rain* | Wind** | Luminosity | Snow |
|---|---|---|---|---|---|---|---|
| 1787688625 | 38.89° C | - | - | 0 mm | 2.68 m/s, 49° | - | - |
| 1787688325 | 38.89° C | - | - | 0 mm | 3.58 m/s, 58° | - | - |
| 1787688025 | 38.89° C | - | - | 0 mm | 4.47 m/s, 77° | - | - |
| 1787687722 | 38.89° C | - | - | 0 mm | 0.89 m/s, 98° | - | - |
| 1787687422 | 38.33° C | - | - | 0 mm | 3.58 m/s, 60° | - | - |
| 1787687122 | 38.33° C | - | - | 0 mm | 4.02 m/s, 10° | - | - |
| 1787686819 | 39.44° C | - | - | 0 mm | 4.47 m/s, 53° | - | - |
| 1787686520 | 39.44° C | - | - | 0 mm | 4.47 m/s, 90° | - | - |
| 1787686220 | 38.33° C | - | - | 0 mm | 3.58 m/s, 84° | - | - |
| 1787671784 | 33.89° C | - | - | 0 mm | 2.24 m/s, 174° | - | - |
| 1787671481 | 33.33° C | - | - | 0 mm | 2.68 m/s, 166° | - | - |
| 1787671182 | 32.78° C | - | - | 0 mm | 3.58 m/s, 194° | - | - |
| 1787670882 | 32.22° C | - | - | 0 mm | 2.68 m/s, 184° | - | - |
| 1787670579 | 31.67° C | - | - | 0 mm | 3.58 m/s, 156° | - | - |
| 1787670279 | 31.67° C | - | - | 0 mm | 3.58 m/s, 249° | - | - |
| 1787670258 | 31.11° C | - | - | 0 mm | 2.24 m/s, 211° | - | - |
| 1787669980 | 31.11° C | - | - | 0 mm | 3.13 m/s, 195° | - | - |
| 1787669677 | 31.67° C | - | - | 0 mm | 4.02 m/s, 166° | - | - |
| 1787669377 | 31.11° C | - | - | 0 mm | 2.24 m/s, 211° | - | - |
| 1787669182 | 30.56° C | - | - | 0 mm | 2.24 m/s, 226° | - | - |
| 1787669077 | 30.56° C | - | - | 0 mm | 2.24 m/s, 226° | - | - |
| 1787668811 | 30° C | - | - | 0 mm | 2.68 m/s, 212° | - | - |
| 1787668775 | 30° C | - | - | 0 mm | 2.68 m/s, 212° | - | - |
| 1787668535 | 29.44° C | - | - | 0 mm | 3.13 m/s, 211° | - | - |
| 1787668475 | 29.44° C | - | - | 0 mm | 3.13 m/s, 211° | - | - |
* Rain latest hour (hover to see other rain measurements)
** Current wind speed in m/s (hover to see current wind gust speed)